Weather Roundup
Issued by NWS Chicago, IL

Home | Current Version | Previous Version | Text Only | Print | Product List | Glossary Off
Versions: 1 2 3 4 5 6 7 8 9 10 11 12 13 14 15 16 17 18 19 20 21 22 23 24 25 26 27 28 29 30 31 32 33 34 35 36 37 38 39 40 41 42 43 44 45 46 47 48 49 50

000
NZUS59 KLOT 211203
HRRLOT

CHICAGO AREA WEATHER ROUNDUP
NATIONAL WEATHER SERVICE CHICAGO/ROMEOVILLE IL
600 AM CST SUN JAN 21 2018

NOTE: "FAIR" INDICATES FEW OR NO CLOUDS BELOW 12,000 FEET WITH NO
SIGNIFICANT WEATHER AND/OR OBSTRUCTIONS TO VISIBILITY.

* THESE STATIONS ARE NOT UNDER NWS QUALITY CONTROL. THEY ALSO MAY NOT
  REPORT WEATHER SUCH AS PRECIPITATION OR FOG.

ILZ005-006-012>014-019>023-211300-
NORTHEAST ILLINOIS

CITY           SKY/WX    TMP DP  RH WIND       PRES   REMARKS
OHARE          CLOUDY    38  35  89 S6        29.97S FOG
6HR MIN TEMP:  36; 6HR MAX TEMP:  39;

MIDWAY         CLOUDY    40  38  93 S5        29.98S
6HR MIN TEMP:  39; 6HR MAX TEMP:  41;

AURORA         CLOUDY    37  36  96 SE5       29.97S FOG
6HR MIN TEMP:  36; 6HR MAX TEMP:  38;

LANSING*       CLOUDY    38  38 100 CALM      30.00R FOG
JOLIET*        CLOUDY    38  38  99 SE3       29.99R FOG
WAUKEGAN       CLOUDY    38  36  92 CALM      29.96F FOG
6HR MIN TEMP:  36; 6HR MAX TEMP:  39;

DUPAGE AIRPORT CLOUDY    37  37 100 S5        29.96S FOG
6HR MIN TEMP:  35; 6HR MAX TEMP:  38;

WHEELING       CLOUDY    38  36  92 S5        29.98F
6HR MIN TEMP:  35; 6HR MAX TEMP:  40;

KANKAKEE*      FOG      N/A N/A N/A SE5       30.00R VSB 1/4
MORRIS*        CLOUDY    37  36  96 SE3       29.97S FOG
NORTHERLY ISL    N/A     40  36  86 S5          N/A
$$

WIZ051-052-058>065-066-070>072-211300-
SOUTHEAST WISCONSIN

CITY           SKY/WX    TMP DP  RH WIND       PRES   REMARKS
MILWAUKEE        N/A     30  30 100 CALM      29.96F FOG
6HR MIN TEMP:  28; 6HR MAX TEMP:  35;

KENOSHA*       CLOUDY    38  35  89 S3        29.96F FOG
RACINE*        CLOUDY    38  35  89 S3        29.98S FOG
BURLINGTON     CLOUDY    34  32  94 CALM      29.95F FOG
WAUKESHA       CLOUDY    32  32 100 CALM      29.97S FOG
$$

INZ001>003-010>013-019-020-211300-
NORTHWEST INDIANA

CITY           SKY/WX    TMP DP  RH WIND       PRES   REMARKS
GARY*          CLOUDY    41  37  87 W3        30.00R
MICHIGAN CITY* NOT AVBL
RENSSELAER*    NOT AVBL
VALPARAISO     FOG       38  37  97 SE7       29.99F VSB 1/4
$$

LMZ740>746-211300-
SOUTHERN LAKE MICHIGAN

STATION/POSITION TIME  SKY/WX   TEMP WIND        PRES    VSBY
                                AIR  DIR/SP/G
                 (UTC)          (F)  (DEG/KT/KT) (MB)    (MI)
HARRISON CRIB    1140            40  180/ 10/ 11   N/A
BURNHAM HARBOR   1200            40  210/  3/  8   N/A
CALUMET HARBOR   1130            39  160/  4/  5 1014.8F
BURNS HARBOR     1140            38  290/  4/ 12 1016.3R
MICHIGAN CITY    1140            39  140/  4/  6   N/A
$$

ABBREVIATIONS USED IN REMARKS
   TC - TEMPERATURE IN CELSIUS
  WCI - WIND CHILL INDEX
   HX - HEAT INDEX
  VSB - VISIBILITY
$$




USA.gov is the U.S. government's official web portal to all federal, state and local government web resources and services.